[[{"header":{"parameterUnit":"m.s-1","parameterCategory":2,"la1":30.2991,"la2":30.254,"lo1":-89.0895,"lo2":-89.0444,"dy":0.0017,"dx":0.0017,"nx":28,"ny":28,"refTime":"2025-07-20T21:00:00:Z","depth":"0","parameterNumber":2,"parameterNumberName":"U-component_of_CURRENTS"},"data":[0,0,0,0,0,0,0,0,0,0,0,0,0,0,0,0,0,0,0,0,0,0,0,0,0,0,0,0,0,0,0,0,0,0,0,0,0,0,0,0,0,0,0,0,0,0,0,0,0,0,0,0,0,0,0,0,0,0,0.4603,0.4604,0,0.4683,0.4683,0.4684,0.4684,0.4683,0.4683,0.4682,0.4897,0.4903,0.4909,0,0,0,0,0,0,0,0,0,0,0,0,0,0.4403,0.4407,0.4602,0.4604,0.4606,0.4683,0.4683,0.4684,0.4684,0.4683,0.4683,0.4682,0.4895,0.4902,0.4909,0,0,0,0,0,0,0,0,0,0,0,0,0,0.4481,0.4408,0.4602,0.462,0.4622,0.4683,0.4683,0.4684,0.4684,0.4683,0.4683,0.4682,0.4892,0.4901,0.491,0.4981,0,0,0.4939,0.4943,0,0,0,0,0,0,0,0,0.4477,0.4488,0.4615,0.4619,0.4622,0.4678,0.4692,0.4792,0.4684,0.4654,0.4682,0.4682,0.4841,0.4854,0.486,0.4991,0.5,0.4939,0.4945,0.4949,0.4952,0,0,0,0,0,0,0,0.4472,0.4484,0.4628,0.4617,0.4621,0.4608,0.4618,0.471,0.4748,0.4656,0.4658,0.4678,0.4843,0.4851,0.4865,0.5003,0.4939,0.4947,0.4953,0.4957,0.5257,0.526,0,0,0,0,0,0,0.4479,0.448,0.4625,0.4631,0.4554,0.4613,0.4624,0.4656,0.4744,0.4757,0.4678,0.4677,0.4835,0.4855,0.4873,0.5081,0.4949,0.4957,0.4963,0.5255,0.5258,0.526,0,0,0,0,0,0,0.4474,0.4491,0.4622,0.4561,0.4578,0.4618,0.4653,0.4658,0.4673,0.476,0.4775,0.469,0.4836,0.486,0.4947,0.5085,0.4962,0.497,0.5252,0.5256,0.5259,0.5423,0,0,0,0,0,0,0.4468,0.4489,0.4521,0.4562,0.4582,0.4681,0.4655,0.466,0.4689,0.4689,0.4777,0.4794,0.4837,0.4933,0.4956,0.5096,0.4977,0.5249,0.5254,0.5258,0.5414,0.5432,0.5447,0,0,0,0,0,0.4461,0.4529,0.4523,0.4541,0.4623,0.4684,0.4692,0.4712,0.4691,0.4718,0.4751,0.4792,0.498,0.4941,0.4969,0.5115,0.5247,0.5252,0.5258,0.5407,0.5428,0.5446,0,0,0,0,0,0,0.4467,0.4537,0.4531,0.4617,0.4649,0.4686,0.4722,0.4719,0.4762,0.4768,0.4812,0.4835,0.497,0.4992,0.4948,0.5205,0.5127,0.5138,0.5232,0.5252,0.5268,0.5266,0.4985,0,0,0,0,0,0.448,0.4545,0.4588,0.4653,0.467,0.4686,0.4713,0.473,0.4771,0.4787,0.4835,0.4905,0.5014,0.5084,0.5157,0.5297,0.5303,0.5405,0.5422,0.5436,0.5447,0.5499,0.5521,0.5279,0.5279,0.5279,0,0,0.4498,0.4548,0.4582,0.4657,0.4676,0.4734,0.47,0.476,0.4829,0.4813,0.4909,0.4959,0.5052,0.5205,0.5273,0.5249,0.552,0.5443,0.5455,0.5459,0.5507,0.5531,0.5552,0.5282,0.5282,0.5281,0,0,0.4573,0.4605,0.4676,0.472,0.4778,0.4785,0.4802,0.4841,0.4881,0.4975,0.4995,0.51,0.5234,0.5341,0.5416,0.556,0.5585,0.56,0.5721,0.5772,0.5793,0.5811,0.5906,0.5931,0.5631,0.5631,0.5631,0,0.4582,0.4689,0.4704,0.4788,0.4827,0.4808,0.4878,0.4934,0.4998,0.5049,0.5028,0.5227,0.5315,0.553,0.5598,0.5612,0.5632,0.5652,0.5796,0.5813,0.5829,0.5921,0.5947,0.564,0.5639,0.5638,0.5637,0,0.471,0.4796,0.4842,0.4927,0.4963,0.5031,0.5085,0.5133,0.5153,0.5205,0.537,0.5458,0.5569,0.5656,0.5696,0.5888,0.5866,0.5794,0.5751,0.5863,0.5954,0.5978,0.5652,0.5649,0.5646,0.5644,0,0,0.4711,0.4895,0.4904,0.4965,0.5046,0.508,0.5197,0.5289,0.537,0.5455,0.5582,0.5788,0.5787,0.5867,0.5932,0.6027,0.6207,0.5981,0.5979,0.6085,0.6353,0.6271,0.6288,0.6145,0.6149,0.6152,0.6393,0,0.4788,0.497,0.5027,0.5152,0.5233,0.5259,0.5359,0.5447,0.5518,0.5636,0.5765,0.5904,0.5887,0.5971,0.6057,0.6163,0.6266,0.6151,0.6218,0.6222,0.6141,0.6311,0.5975,0.6153,0.6416,0.642,0.6423,0,0.4884,0.499,0.5149,0.5279,0.5306,0.5362,0.5465,0.5565,0.5732,0.5803,0.5926,0.5997,0.6207,0.6138,0.6351,0.6268,0.6328,0.6391,0.6399,0.6273,0.6181,0.6069,0.6185,0.602,0.6458,0.6455,0.6453,0,0.4897,0.5059,0.518,0.5237,0.5384,0.5434,0.5475,0.5609,0.5714,0.5905,0.5993,0.6169,0.6268,0.6371,0.6488,0.6433,0.6688,0.661,0.6599,0.6595,0.6298,0.6261,0.6258,0.674,0.6739,0.6738,0.6738,0,0.4987,0.5084,0.5189,0.5286,0.5371,0.5443,0.5559,0.5645,0.58,0.593,0.6056,0.6191,0.6316,0.6462,0.6554,0.6662,0.6723,0.6669,0.6658,0.6351,0.6317,0.6144,0.6078,0.6747,0.6745,0.6744,0.6742,0,0.5045,0.5136,0.5278,0.5399,0.5418,0.5472,0.5581,0.5667,0.5805,0.5981,0.6054,0.6239,0.6421,0.6556,0.675,0.6724,0.6677,0.6873,0.6535,0.6478,0.6279,0.6234,0.6084,0.5913,0.6926,0.6925,0.6925,0,0.5134,0.5223,0.5337,0.5366,0.5421,0.5494,0.5545,0.5668,0.5752,0.6008,0.6088,0.6314,0.6445,0.6699,0.6714,0.686,0.667,0.661,0.6439,0.6273,0.6216,0.6025,0.5876,0.6148,0.6142,0.6136,0.6132,0,0.526,0.5281,0.5352,0.541,0.5445,0.55,0.5569,0.5629,0.5782,0.5909,0.6057,0.6196,0.6411,0.6373,0.6533,0.657,0.6265,0.6502,0.6383,0.5676,0.5408,0.5232,0.604,0.6082,0.6087,0.6091,0.6093,0.6095,0.5301,0.5322,0.5365,0.5396,0.5427,0.5431,0.5407,0.5484,0.5565,0.5625,0.588,0.5907,0.6001,0.6166,0.6189,0.5942,0.5995,0.5732,0.5728,0.5582,0.5272,0.6018,0.5996,0.6,0.6004,0.6007,0.601,0,0.5275,0.5281,0.5336,0.5313,0.528,0.5337,0.535,0.5256,0.5225,0.5337,0.54,0.5387,0.5386,0.545,0.5352,0.5171,0.4943,0.5027,0.4642,0.4564,0.5266,0.5082,0.4789,0.4789,0.4789,0.4789,0.4789,0.479,0.5263,0.5239,0.524,0.5138,0.5116,0.4951,0.4905,0.479,0.477,0.4608,0.4519,0.4598,0.4851,0.4914,0.471,0.4588,0.426,0.4052,0.4147,0.46,0.4662,0.4722,0.4532,0.4128,0.4128,0.3175,0.3168,0.3162]},{"header":{"parameterUnit":"m.s-1","parameterCategory":2,"la1":30.2991,"la2":30.254,"lo1":-89.0895,"lo2":-89.0444,"dy":0.0017,"dx":0.0017,"nx":28,"ny":28,"refTime":"2025-07-20T21:00:00:Z","depth":"0","parameterNumber":3,"parameterNumberName":"V-component_of_CURRENTS"},"data":[0,0,0,0,0,0,0,0,0,0,0,0,0,0,0,0,0,0,0,0,0,0,0,0,0,0,0,0,0,0,0,0,0,0,0,0,0,0,0,0,0,0,0,0,0,0,0,0,0,0,0,0,0,0,0,0,0,0,-0.0014,-0.0015,0,-0.0082,-0.0083,-0.0084,-0.0144,-0.0144,-0.0145,-0.0145,-0.0407,-0.0413,-0.0419,0,0,0,0,0,0,0,0,0,0,0,0,0,0.0039,0.0038,-0.0014,-0.0015,-0.0015,-0.0082,-0.0083,-0.0084,-0.0144,-0.0144,-0.0145,-0.0146,-0.0405,-0.0412,-0.042,0,0,0,0,0,0,0,0,0,0,0,0,0,-0.0004,0.0038,-0.0014,-0.0052,-0.0056,-0.0082,-0.0083,-0.0084,-0.0144,-0.0144,-0.0145,-0.0146,-0.0402,-0.0412,-0.0421,-0.0466,0,0,-0.0451,-0.0455,0,0,0,0,0,0,0,0,-0.0001,-0.0006,-0.0045,-0.0049,-0.0053,-0.0103,-0.016,-0.0221,-0.0143,-0.0112,-0.0145,-0.0146,-0.0321,-0.0338,-0.0349,-0.0478,-0.0489,-0.0452,-0.0458,-0.0462,-0.0465,0,0,0,0,0,0,0,0.0002,-0.0004,-0.0043,-0.0046,-0.0051,-0.0073,-0.008,-0.0171,-0.0217,-0.0115,-0.0119,-0.0123,-0.0325,-0.0339,-0.0356,-0.0493,-0.0451,-0.046,-0.0466,-0.047,-0.0705,-0.0706,0,0,0,0,0,0,0.0016,-0.0001,-0.0041,-0.0045,-0.0026,-0.0073,-0.0081,-0.0088,-0.0212,-0.0229,-0.0122,-0.0126,-0.0322,-0.0345,-0.0366,-0.0454,-0.0462,-0.0471,-0.0476,-0.0705,-0.0705,-0.0706,0,0,0,0,0,0,0.0018,0.0013,-0.0038,-0.0022,-0.003,-0.0073,-0.0081,-0.0089,-0.0103,-0.0215,-0.0237,-0.0127,-0.0324,-0.0352,-0.0441,-0.0464,-0.0475,-0.0484,-0.0704,-0.0705,-0.0706,-0.0614,0,0,0,0,0,0,0.002,0.0014,0.0012,-0.0021,-0.0031,-0.0049,-0.008,-0.009,-0.0103,-0.0108,-0.0227,-0.0251,-0.0326,-0.0426,-0.0451,-0.0478,-0.0492,-0.0704,-0.0705,-0.0705,-0.0616,-0.0611,-0.0607,0,0,0,0,0,0.0022,0.0027,0.0012,0.0007,-0.0032,-0.0048,-0.0055,-0.0089,-0.0102,-0.0105,-0.0183,-0.0247,-0.0449,-0.0434,-0.0463,-0.0493,-0.0703,-0.0704,-0.0705,-0.0618,-0.0612,-0.0607,0,0,0,0,0,0,0.0052,0.002,0.0004,-0.0001,-0.0021,-0.0057,-0.0061,-0.0081,-0.0139,-0.0151,-0.0253,-0.0283,-0.0369,-0.044,-0.042,-0.0562,-0.0588,-0.0594,-0.0512,-0.0507,-0.0502,-0.0398,-0.05,0,0,0,0,0,0.0058,0.0052,0.0021,0.0019,0.0011,-0.0022,-0.0033,-0.0055,-0.0106,-0.013,-0.0208,-0.0303,-0.0395,-0.0454,-0.0538,-0.0619,-0.0595,-0.0658,-0.0653,-0.0648,-0.0583,-0.0549,-0.0533,-0.0709,-0.0709,-0.0709,0,0,0.0073,0.0054,0.0052,0.0025,0.0007,0.0014,-0.0031,-0.0041,-0.0043,-0.0156,-0.0192,-0.0287,-0.0409,-0.0493,-0.0539,-0.0558,-0.0593,-0.0649,-0.0644,-0.058,-0.0548,-0.053,-0.0514,-0.071,-0.0709,-0.0709,0,0,0.0109,0.0081,0.0091,0.0081,0.0058,0.0039,0.0042,0.0006,-0.0022,-0.0069,-0.0154,-0.0233,-0.0378,-0.0451,-0.0515,-0.0531,-0.0561,-0.0595,-0.0501,-0.0471,-0.0454,-0.0439,-0.04,-0.0382,-0.0603,-0.0602,-0.0602,0,0.0132,0.0146,0.0094,0.0106,0.012,0.006,0.0095,0.0053,-0.0007,-0.0007,-0.0069,-0.0208,-0.0341,-0.0404,-0.0435,-0.0516,-0.0495,-0.0516,-0.0457,-0.0442,-0.0428,-0.0392,-0.0373,-0.0598,-0.0599,-0.0599,-0.0599,0,0.0181,0.0196,0.0206,0.0207,0.0202,0.0225,0.0174,0.0163,0.0122,0.0095,0.0042,-0.0108,-0.0176,-0.0268,-0.0376,-0.0368,-0.0384,-0.0444,-0.0455,-0.0403,-0.0371,-0.0353,-0.0592,-0.0593,-0.0595,-0.0596,0,0,0.0252,0.0247,0.0255,0.0291,0.027,0.0285,0.0278,0.0287,0.0324,0.0229,0.0292,0.0079,0.0029,-0.0042,-0.0185,-0.0196,-0.0142,-0.0282,-0.0283,-0.021,-0.0051,-0.0108,-0.0094,-0.019,-0.0186,-0.0183,-0.0073,0,0.0328,0.0389,0.0358,0.0438,0.0485,0.0442,0.0455,0.0441,0.0411,0.0446,0.0324,0.0301,0.0099,0.0067,0.0021,-0.009,-0.0086,-0.0164,-0.0138,-0.0136,-0.0165,-0.0072,-0.0126,-0.0035,-0.0055,-0.0052,-0.005,0,0.0412,0.0448,0.0539,0.0596,0.0611,0.0641,0.0704,0.0704,0.0706,0.0686,0.066,0.0577,0.0517,0.0358,0.0259,0.022,0.0108,0.0027,0.0028,-0.0024,-0.0157,-0.0091,-0.0001,-0.0263,-0.0022,-0.0024,-0.0026,0,0.0537,0.059,0.0679,0.0698,0.0733,0.0776,0.0795,0.0799,0.0835,0.0873,0.0937,0.0845,0.0824,0.0704,0.0464,0.0385,0.0407,0.0275,0.0142,0.0136,0.0103,0.0088,-0.0019,0.0276,0.0276,0.0275,0.0275,0,0.0659,0.0737,0.075,0.0811,0.0924,0.0902,0.1018,0.102,0.1077,0.1182,0.1075,0.1157,0.0912,0.0856,0.0632,0.0461,0.0536,0.0227,0.0183,0.0125,0.0111,-0.0112,-0.027,0.0279,0.0278,0.0278,0.0277,0,0.0791,0.0799,0.0915,0.0971,0.0992,0.1077,0.1153,0.1232,0.1272,0.1427,0.1464,0.1425,0.136,0.1122,0.0942,0.0682,0.0379,0.0442,0.0391,0.0339,-0.0069,-0.0219,-0.0307,-0.0397,0.0344,0.0344,0.0344,0,0.0862,0.0939,0.1036,0.1088,0.1119,0.122,0.1285,0.133,0.1425,0.1598,0.1701,0.1704,0.1729,0.1455,0.1035,0.0727,0.043,0.0421,0.0239,-0.0036,-0.0235,-0.0354,-0.0433,0.0226,0.0225,0.0224,0.0223,0,0.1001,0.1038,0.111,0.1216,0.13,0.1408,0.1516,0.1629,0.1728,0.1896,0.2105,0.2174,0.1911,0.1578,0.11,0.0824,0.0217,0.0387,0.0127,-0.0285,-0.0438,-0.0565,0.0094,0.0214,0.0215,0.0215,0.0216,0.0216,0.1087,0.1147,0.1219,0.1322,0.1429,0.1571,0.1687,0.1846,0.2062,0.2338,0.2391,0.255,0.2013,0.1373,0.0973,0.015,0.0177,-0.0143,-0.028,-0.0357,-0.0513,0.0134,0.0168,0.0169,0.0169,0.017,0.017,0,0.1138,0.1188,0.1299,0.1418,0.1552,0.1595,0.1813,0.1969,0.2262,0.2535,0.2749,0.2567,0.1909,0.1195,0.0117,-0.043,-0.0638,-0.0738,-0.0936,-0.0966,-0.0361,-0.0443,-0.0569,-0.0569,-0.0569,-0.0569,-0.0568,-0.0568,0.1156,0.1235,0.1282,0.1478,0.1583,0.1774,0.1912,0.2202,0.2436,0.2752,0.2851,0.2898,0.2297,0.0455,-0.0799,-0.1078,-0.1442,-0.1544,-0.1661,-0.1316,-0.1272,-0.1231,-0.1345,-0.1658,-0.166,-0.2222,-0.2228,-0.2233]}],[{"header":{"parameterUnit":"m.s-1","parameterCategory":2,"la1":30.2991,"la2":30.254,"lo1":-89.0895,"lo2":-89.0444,"dy":0.0017,"dx":0.0017,"nx":28,"ny":28,"refTime":"2025-07-20T21:00:00:Z","depth":"2","parameterNumber":2,"parameterNumberName":"U-component_of_CURRENTS"},"data":[0,0,0,0,0,0,0,0,0,0,0,0,0,0,0,0,0,0,0,0,0,0,0,0,0,0,0,0,0,0,0,0,0,0,0,0,0,0,0,0,0,0,0,0,0,0,0,0,0,0,0,0,0,0,0,0,0,0,0.3456,0.3459,0,0.3578,0.3578,0.3578,0.356,0.3559,0.3559,0.3558,0.3462,0.346,0.3458,0,0,0,0,0,0,0,0,0,0,0,0,0,0.3264,0.3265,0.3456,0.3459,0.3462,0.3578,0.3578,0.3578,0.356,0.3559,0.3559,0.3558,0.3463,0.346,0.3458,0,0,0,0,0,0,0,0,0,0,0,0,0,0.3345,0.3266,0.3455,0.348,0.3485,0.3578,0.3578,0.3578,0.356,0.3559,0.3559,0.3558,0.3464,0.346,0.3457,0.345,0,0,0.3447,0.3446,0,0,0,0,0,0,0,0,0.3341,0.335,0.3473,0.3479,0.3484,0.3568,0.3476,0.353,0.356,0.3513,0.3558,0.3558,0.3489,0.3484,0.3486,0.3446,0.3442,0.3447,0.3445,0.3444,0.3443,0,0,0,0,0,0,0,0.3335,0.3346,0.3486,0.3477,0.3484,0.3506,0.3514,0.3486,0.3485,0.3517,0.352,0.3562,0.3488,0.349,0.3484,0.344,0.3447,0.3444,0.3442,0.3441,0.3418,0.342,0,0,0,0,0,0,0.3354,0.334,0.3482,0.3491,0.3429,0.3511,0.3519,0.3527,0.349,0.3491,0.3563,0.3561,0.3495,0.3487,0.348,0.3557,0.3444,0.3441,0.3439,0.3417,0.3419,0.342,0,0,0,0,0,0,0.3348,0.3364,0.3478,0.3434,0.3453,0.3516,0.3525,0.3531,0.3549,0.3531,0.3523,0.3579,0.3495,0.3484,0.3477,0.3549,0.3439,0.3436,0.3416,0.3418,0.342,0.3654,0,0,0,0,0,0,0.3341,0.336,0.3365,0.3435,0.3457,0.3508,0.3528,0.3534,0.3584,0.3582,0.3542,0.3532,0.3493,0.3483,0.3474,0.3543,0.3434,0.3414,0.3416,0.3419,0.3645,0.3664,0.368,0,0,0,0,0,0.3333,0.3373,0.3363,0.3382,0.3462,0.3509,0.3518,0.3551,0.3586,0.3568,0.3579,0.3534,0.3492,0.3482,0.3471,0.3541,0.3413,0.3416,0.3419,0.3637,0.366,0.368,0,0,0,0,0,0,0.3293,0.3379,0.3368,0.3427,0.3446,0.3512,0.3551,0.3568,0.3568,0.3584,0.3553,0.3543,0.3569,0.3505,0.3494,0.3534,0.3444,0.3445,0.3613,0.3634,0.3652,0.3614,0.3431,0,0,0,0,0,0.3287,0.3328,0.3383,0.3417,0.3449,0.3495,0.3528,0.3541,0.3571,0.3573,0.3569,0.3561,0.3571,0.3563,0.3539,0.3557,0.3565,0.3588,0.3606,0.3622,0.358,0.3726,0.3756,0.343,0.343,0.343,0,0,0.3289,0.3338,0.3362,0.3411,0.3451,0.3513,0.3509,0.3567,0.3594,0.3561,0.361,0.3623,0.3588,0.3625,0.3629,0.3583,0.3724,0.3626,0.3641,0.3588,0.3733,0.3766,0.3795,0.3432,0.3432,0.3432,0,0,0.3312,0.3351,0.3385,0.344,0.3507,0.3534,0.3555,0.3622,0.3616,0.3664,0.3671,0.3718,0.3719,0.3722,0.3724,0.381,0.382,0.3817,0.388,0.4028,0.4058,0.4083,0.4178,0.421,0.3824,0.3824,0.3825,0,0.3299,0.3375,0.3395,0.3471,0.3551,0.3556,0.3627,0.3626,0.3671,0.3702,0.3692,0.3808,0.3765,0.3854,0.3871,0.3856,0.3931,0.3823,0.4061,0.4085,0.4108,0.4198,0.423,0.3836,0.3835,0.3833,0.3832,0,0.3384,0.3447,0.35,0.3588,0.363,0.3719,0.374,0.3769,0.3806,0.3835,0.3928,0.392,0.3996,0.4003,0.3953,0.4096,0.4098,0.4087,0.4027,0.4157,0.4241,0.4271,0.3853,0.3848,0.3845,0.3842,0,0,0.3377,0.3521,0.3546,0.36,0.3731,0.3764,0.3833,0.3893,0.3972,0.4008,0.4138,0.4147,0.4187,0.4181,0.4175,0.4249,0.4468,0.4229,0.4232,0.4355,0.4801,0.4633,0.4649,0.4554,0.456,0.4564,0.4814,0,0.3443,0.3573,0.3642,0.3771,0.3856,0.3927,0.399,0.4037,0.409,0.4202,0.4225,0.4322,0.4243,0.4318,0.4397,0.4447,0.4551,0.4398,0.462,0.4623,0.449,0.4678,0.428,0.4454,0.4842,0.4847,0.4851,0,0.3527,0.3611,0.3742,0.3874,0.3921,0.3996,0.4144,0.4196,0.4326,0.4382,0.4515,0.4543,0.4646,0.457,0.4761,0.4695,0.4747,0.4772,0.4785,0.4544,0.451,0.4372,0.4493,0.49,0.4896,0.4892,0.4889,0,0.3506,0.368,0.3776,0.3857,0.4009,0.4076,0.4149,0.4274,0.4342,0.4514,0.4629,0.4768,0.4864,0.4972,0.4979,0.4931,0.5189,0.5152,0.5053,0.5043,0.4685,0.4631,0.531,0.531,0.5309,0.5309,0.5308,0,0.3566,0.3644,0.3786,0.3862,0.4002,0.4091,0.4219,0.4333,0.4505,0.4595,0.4725,0.4832,0.4975,0.5107,0.5114,0.5172,0.5334,0.5078,0.5111,0.4752,0.4705,0.5039,0.5004,0.5318,0.5316,0.5314,0.5313,0,0.3472,0.3608,0.3765,0.3949,0.3996,0.4107,0.426,0.4301,0.4522,0.4668,0.4734,0.4961,0.5109,0.522,0.5391,0.5331,0.5398,0.5375,0.4905,0.4874,0.5123,0.5097,0.5329,0.5325,0.5322,0.532,0.5318,0,0.3502,0.3552,0.3763,0.3865,0.395,0.4081,0.4094,0.4297,0.4352,0.4683,0.473,0.4984,0.502,0.525,0.5225,0.5284,0.5388,0.4947,0.4733,0.5124,0.5134,0.5112,0.5091,0.4386,0.4377,0.4369,0.4363,0,0.3553,0.3587,0.3634,0.3739,0.384,0.3932,0.4006,0.4057,0.425,0.4398,0.4551,0.4637,0.4849,0.4722,0.4848,0.4814,0.4899,0.4785,0.541,0.4408,0.4246,0.4251,0.426,0.4293,0.43,0.4305,0.4309,0.4312,0.3559,0.3556,0.3536,0.3623,0.3723,0.3725,0.3708,0.3777,0.3867,0.4015,0.4191,0.4221,0.4327,0.4284,0.4206,0.4206,0.4508,0.4333,0.4354,0.4384,0.4195,0.4033,0.4005,0.401,0.4014,0.4018,0.4022,0,0.3453,0.3359,0.3407,0.3471,0.3434,0.3568,0.3562,0.3493,0.3488,0.3643,0.3721,0.3442,0.3418,0.3586,0.345,0.3463,0.3402,0.3363,0.325,0.3324,0.3388,0.3143,0.2677,0.2672,0.2668,0.2664,0,0,0.3373,0.3232,0.3171,0.3145,0.3194,0.3153,0.313,0.3065,0.312,0.3016,0.3031,0.3247,0.3436,0.2981,0.2956,0.2798,0.3029,0.2699,0.3784,0.3723,0.3781,0.3965,0.3673,0,0,0,0,0]},{"header":{"parameterUnit":"m.s-1","parameterCategory":2,"la1":30.2991,"la2":30.254,"lo1":-89.0895,"lo2":-89.0444,"dy":0.0017,"dx":0.0017,"nx":28,"ny":28,"refTime":"2025-07-20T21:00:00:Z","depth":"2","parameterNumber":3,"parameterNumberName":"V-component_of_CURRENTS"},"data":[0,0,0,0,0,0,0,0,0,0,0,0,0,0,0,0,0,0,0,0,0,0,0,0,0,0,0,0,0,0,0,0,0,0,0,0,0,0,0,0,0,0,0,0,0,0,0,0,0,0,0,0,0,0,0,0,0,0,0.0106,0.0106,0,0.0049,0.0049,0.0048,-0.0002,-0.0002,-0.0003,-0.0003,-0.0096,-0.0097,-0.0099,0,0,0,0,0,0,0,0,0,0,0,0,0,0.0098,0.0099,0.0107,0.0106,0.0105,0.005,0.0049,0.0048,-0.0002,-0.0002,-0.0003,-0.0003,-0.0095,-0.0097,-0.01,0,0,0,0,0,0,0,0,0,0,0,0,0,0.0077,0.0099,0.0107,0.0074,0.0071,0.005,0.0049,0.0048,-0.0001,-0.0002,-0.0003,-0.0004,-0.0094,-0.0097,-0.01,-0.0103,0,0,-0.0109,-0.011,0,0,0,0,0,0,0,0,0.0078,0.0077,0.008,0.0077,0.0073,0.0031,0.0012,-0.0004,-0.0001,0.0025,-0.0003,-0.0004,-0.0056,-0.0062,-0.0071,-0.0108,-0.0112,-0.0109,-0.0111,-0.0112,-0.0113,0,0,0,0,0,0,0,0.008,0.0079,0.0083,0.0079,0.0075,0.0037,0.0034,0.0008,-0.0011,0.0023,0.0019,0.0014,-0.0058,-0.0068,-0.0074,-0.0113,-0.0109,-0.0112,-0.0114,-0.0115,-0.0136,-0.0135,0,0,0,0,0,0,0.0093,0.0081,0.0085,0.0082,0.0074,0.0038,0.0035,0.0044,-0.001,-0.0019,0.0015,0.0012,-0.0063,-0.007,-0.0077,-0.0094,-0.0112,-0.0115,-0.0117,-0.0137,-0.0136,-0.0135,0,0,0,0,0,0,0.0094,0.0095,0.0087,0.0079,0.0076,0.004,0.0051,0.0044,0.0032,-0.0016,-0.0026,0.001,-0.0064,-0.0073,-0.0119,-0.0097,-0.0117,-0.0119,-0.0139,-0.0137,-0.0135,-0.0121,0,0,0,0,0,0,0.0094,0.0096,0.0105,0.0081,0.0077,0.009,0.0051,0.0043,0.003,0.0026,-0.0023,-0.0032,-0.0065,-0.0115,-0.0122,-0.0102,-0.0122,-0.014,-0.0138,-0.0136,-0.0123,-0.0119,-0.0115,0,0,0,0,0,0.0094,0.0119,0.0106,0.0106,0.0093,0.0091,0.0087,0.0056,0.0031,0.004,-0.002,-0.0031,-0.0103,-0.0118,-0.0127,-0.0106,-0.0142,-0.0139,-0.0136,-0.0124,-0.0119,-0.0115,0,0,0,0,0,0,0.0126,0.0116,0.0101,0.0123,0.0113,0.0084,0.0086,0.0062,0.0024,0.0008,-0.0042,-0.0055,-0.0081,-0.0092,-0.0106,-0.0099,-0.0113,-0.0111,-0.01,-0.0096,-0.0092,-0.0033,-0.0124,0,0,0,0,0,0.0137,0.0152,0.0133,0.0153,0.0148,0.0115,0.0108,0.0087,0.0051,0.0034,-0.0003,-0.0039,-0.0073,-0.0087,-0.0114,-0.0123,-0.0138,-0.0103,-0.0099,-0.0096,-0.0051,-0.0104,-0.0102,-0.0125,-0.0126,-0.0126,0,0,0.0155,0.0152,0.016,0.016,0.0145,0.0155,0.011,0.0105,0.012,0.003,0.0027,-0.0036,-0.0075,-0.0092,-0.0099,-0.0101,-0.0097,-0.0093,-0.009,-0.0045,-0.0101,-0.0099,-0.0097,-0.0124,-0.0124,-0.0124,0,0,0.0209,0.0196,0.0227,0.0215,0.0199,0.0183,0.0186,0.0156,0.0151,0.0123,0.0066,0.002,-0.0027,-0.0045,-0.0064,-0.0044,-0.0084,-0.0053,0.0017,-0.0038,-0.0037,-0.0036,-0.006,-0.0062,-0.0043,-0.0043,-0.0043,0,0.0227,0.0265,0.0236,0.0253,0.0253,0.0203,0.0231,0.0222,0.0182,0.0175,0.0132,0.0048,0.0009,-0.0005,-0.0,-0.0032,-0.0072,-0.001,-0.0035,-0.0035,-0.0034,-0.0059,-0.0061,-0.0042,-0.0042,-0.0042,-0.0042,0,0.0293,0.0319,0.0334,0.0343,0.0341,0.0354,0.0334,0.0326,0.0291,0.0266,0.023,0.0154,0.0113,0.0088,0.0044,0.0042,0.0007,-0.004,-0.0054,-0.0031,-0.0059,-0.0061,-0.004,-0.0041,-0.0041,-0.0041,0,0,0.0349,0.0378,0.0382,0.0405,0.0385,0.0396,0.0413,0.0418,0.0432,0.0365,0.0383,0.03,0.0242,0.0224,0.0158,0.0118,0.0074,0.0048,0.0044,0.0015,-0.0042,-0.01,-0.0109,-0.0012,-0.0012,-0.0012,-0.0067,0,0.0412,0.048,0.047,0.0528,0.0562,0.0513,0.0542,0.0526,0.05,0.0501,0.0421,0.0403,0.0303,0.0275,0.0214,0.012,0.007,0.0096,-0.0048,-0.005,-0.0114,-0.0112,-0.0088,-0.0139,-0.007,-0.007,-0.007,0,0.048,0.052,0.0597,0.0635,0.0643,0.0661,0.0677,0.0697,0.0674,0.0651,0.0594,0.0529,0.0484,0.0387,0.0236,0.0242,0.0119,0.0031,0.0024,-0.0023,-0.0112,-0.0147,-0.0146,-0.0074,-0.0074,-0.0074,-0.0073,0,0.055,0.0607,0.0679,0.0684,0.0715,0.0734,0.0746,0.0735,0.0773,0.0759,0.0775,0.0666,0.0653,0.0472,0.0288,0.0251,0.0116,0.0039,-0.0128,-0.0133,-0.0126,-0.0131,-0.0071,-0.0071,-0.0071,-0.0071,-0.0071,0,0.0629,0.068,0.0717,0.0749,0.0816,0.0814,0.0882,0.0868,0.09,0.0964,0.0868,0.09,0.0667,0.0554,0.0344,0.0118,0.0149,-0.0091,-0.015,-0.0121,-0.0125,-0.0074,-0.0074,-0.0073,-0.0073,-0.0072,-0.0072,0,0.0704,0.0728,0.0786,0.0829,0.0854,0.089,0.0964,0.1019,0.1043,0.1133,0.1144,0.1086,0.0944,0.0697,0.0441,0.0221,-0.0006,-0.0104,-0.0037,-0.0088,-0.0231,-0.0229,-0.0286,-0.0288,-0.029,-0.0292,-0.0293,0,0.0738,0.0788,0.0839,0.0859,0.088,0.0953,0.1019,0.1073,0.1151,0.125,0.1311,0.1231,0.1181,0.0798,0.0402,0.0032,-0.0011,-0.02,-0.0269,-0.0201,-0.0253,-0.0247,-0.0242,-0.0252,-0.0253,-0.0254,-0.0254,0,0.0774,0.0787,0.0834,0.0922,0.0978,0.1069,0.1175,0.1293,0.1393,0.1496,0.1617,0.1598,0.1228,0.0867,0.0348,0.0085,-0.0144,-0.0232,-0.0172,-0.0211,-0.0177,-0.0226,-0.0221,-0.0262,-0.0261,-0.0261,-0.026,-0.026,0.077,0.0802,0.0879,0.0972,0.1051,0.1219,0.1355,0.1509,0.1711,0.1898,0.1826,0.18,0.1349,0.0694,0.0253,-0.0206,-0.0201,-0.0372,-0.0365,-0.0359,-0.0355,-0.0328,-0.0438,-0.0438,-0.0438,-0.0438,-0.0439,0,0.0783,0.0853,0.0928,0.1066,0.1217,0.124,0.1488,0.1665,0.1968,0.2029,0.2096,0.1676,0.1253,0.0763,0.0071,-0.0362,-0.0383,-0.0482,-0.0407,-0.0398,-0.039,-0.0385,-0.0477,-0.0478,-0.0479,-0.048,0,0,0.0787,0.0893,0.0977,0.1226,0.133,0.1554,0.1726,0.1987,0.2112,0.222,0.2157,0.1987,0.138,0.0878,0.0302,-0.0074,-0.0136,-0.0156,-0.0086,0.0078,0.0091,-0.0297,-0.0276,0,0,0,0,0]}],[{"header":{"parameterUnit":"m.s-1","parameterCategory":2,"la1":30.2991,"la2":30.254,"lo1":-89.0895,"lo2":-89.0444,"dy":0.0017,"dx":0.0017,"nx":28,"ny":28,"refTime":"2025-07-20T21:00:00:Z","depth":"4","parameterNumber":2,"parameterNumberName":"U-component_of_CURRENTS"},"data":[0,0,0,0,0,0,0,0,0,0,0,0,0,0,0,0,0,0,0,0,0,0,0,0,0,0,0,0,0,0,0,0,0,0,0,0,0,0,0,0,0,0,0,0,0,0,0,0,0,0,0,0,0,0,0,0,0,0,0.1677,0.1679,0,0.1798,0.18,0.1801,0.1896,0.1897,0.1898,0.1899,0.1909,0.1909,0.1908,0,0,0,0,0,0,0,0,0,0,0,0,0,0.1587,0.1588,0.1677,0.1679,0.168,0.1798,0.18,0.1801,0.1896,0.1897,0.1898,0.1899,0.191,0.1909,0.1908,0,0,0,0,0,0,0,0,0,0,0,0,0,0.166,0.1588,0.1677,0.1741,0.1748,0.1798,0.18,0.1802,0.1896,0.1897,0.1899,0.19,0.191,0.1909,0.1908,0.1877,0,0,0.1906,0.1905,0,0,0,0,0,0,0,0,0.1655,0.1663,0.173,0.1737,0.1745,0.1833,0.1772,0.1821,0.1896,0.1841,0.1899,0.19,0.1872,0.1874,0.1897,0.1878,0.1878,0.1906,0.1905,0.1905,0.1905,0,0,0,0,0,0,0,0.165,0.1659,0.1726,0.1732,0.174,0.1784,0.1795,0.1783,0.1846,0.1845,0.1853,0.1864,0.1876,0.1898,0.1897,0.1878,0.1906,0.1905,0.1904,0.1904,0.1944,0.1945,0,0,0,0,0,0,0.1629,0.1653,0.1722,0.173,0.1701,0.1784,0.1797,0.1804,0.1849,0.1858,0.1863,0.1868,0.1898,0.1898,0.1898,0.196,0.1905,0.1904,0.1904,0.1942,0.1944,0.1946,0,0,0,0,0,0,0.1627,0.1634,0.1717,0.1694,0.1708,0.1784,0.1791,0.1806,0.1879,0.1863,0.1871,0.1927,0.1899,0.1899,0.1926,0.1957,0.1904,0.1903,0.194,0.1943,0.1945,0.2021,0,0,0,0,0,0,0.1623,0.1632,0.1649,0.1692,0.1708,0.1761,0.179,0.1807,0.188,0.189,0.1919,0.1919,0.19,0.1928,0.1926,0.1955,0.1902,0.1938,0.1941,0.1944,0.2016,0.2025,0.2033,0,0,0,0,0,0.162,0.1623,0.1648,0.1658,0.1722,0.1762,0.1775,0.1834,0.1882,0.1908,0.1939,0.1921,0.1944,0.1928,0.1925,0.1955,0.1937,0.194,0.1944,0.2013,0.2024,0.2033,0,0,0,0,0,0,0.1582,0.1634,0.1663,0.168,0.1728,0.1778,0.1817,0.1862,0.1914,0.1942,0.1936,0.1937,0.1974,0.1954,0.1937,0.1976,0.1939,0.1942,0.1992,0.2002,0.2011,0.2013,0.1902,0,0,0,0,0,0.1582,0.1614,0.1657,0.1681,0.1709,0.1778,0.1814,0.1858,0.19,0.193,0.1945,0.1964,0.1977,0.1985,0.1985,0.2001,0.2031,0.202,0.2028,0.2035,0.2036,0.2143,0.2162,0.1957,0.1957,0.1957,0,0,0.1575,0.161,0.1629,0.1679,0.1731,0.1771,0.1805,0.1873,0.1912,0.1915,0.1978,0.1995,0.199,0.2015,0.2029,0.2008,0.2109,0.204,0.2046,0.2043,0.2149,0.2169,0.2187,0.1959,0.1959,0.1958,0,0,0.1564,0.1614,0.1634,0.1676,0.1754,0.18,0.183,0.1901,0.1944,0.1993,0.2016,0.2058,0.2067,0.2077,0.208,0.2133,0.2154,0.2139,0.2179,0.2284,0.2302,0.2318,0.2384,0.2405,0.2139,0.214,0.214,0,0.157,0.1598,0.1645,0.1675,0.1736,0.1817,0.1868,0.1903,0.1974,0.2018,0.2019,0.2102,0.2093,0.2145,0.216,0.2152,0.2212,0.2141,0.2297,0.2314,0.233,0.2393,0.2416,0.2144,0.2143,0.2143,0.2142,0,0.156,0.1608,0.1632,0.1709,0.1762,0.1834,0.189,0.1955,0.2029,0.2067,0.2151,0.2157,0.2219,0.2213,0.2196,0.23,0.2307,0.2303,0.2275,0.2355,0.2416,0.2439,0.215,0.2148,0.2147,0.2146,0,0,0.1563,0.1621,0.1651,0.1694,0.1812,0.1856,0.1934,0.2033,0.2119,0.2156,0.227,0.2267,0.2314,0.2321,0.2326,0.2384,0.2531,0.2393,0.2397,0.2463,0.2764,0.256,0.2565,0.2581,0.2585,0.2588,0.2763,0,0.1585,0.1634,0.1681,0.1776,0.1815,0.1929,0.1992,0.2081,0.2179,0.2291,0.2321,0.2422,0.2342,0.2423,0.246,0.2529,0.2596,0.2483,0.2671,0.2675,0.2489,0.2585,0.2602,0.278,0.2785,0.2789,0.2791,0,0.1584,0.1628,0.1694,0.182,0.186,0.1943,0.2138,0.22,0.2345,0.2434,0.2536,0.258,0.2668,0.2617,0.2739,0.2687,0.2734,0.2759,0.2768,0.2562,0.2512,0.2682,0.2832,0.2829,0.2826,0.2823,0.2821,0,0.1537,0.1664,0.1727,0.1766,0.1886,0.1991,0.2115,0.2264,0.2317,0.2576,0.2667,0.278,0.2878,0.2939,0.2945,0.2901,0.3084,0.3039,0.289,0.2876,0.2975,0.2955,0.3159,0.3159,0.3159,0.3158,0.3158,0,0.152,0.1579,0.173,0.1743,0.1852,0.1998,0.2141,0.2281,0.2475,0.2548,0.2746,0.2822,0.2976,0.3056,0.305,0.302,0.3181,0.291,0.2916,0.3,0.2981,0.2991,0.2969,0.3165,0.3163,0.3162,0.3161,0,0.1388,0.1488,0.1537,0.1722,0.1788,0.1873,0.2092,0.2184,0.2435,0.2564,0.2658,0.2899,0.3045,0.3125,0.3274,0.3142,0.3159,0.312,0.3212,0.3218,0.2855,0.2836,0.2974,0.2968,0.2964,0.296,0.2956,0,0.1284,0.1295,0.1457,0.148,0.1571,0.1733,0.1819,0.2109,0.2207,0.2537,0.2571,0.2839,0.2963,0.3008,0.3128,0.317,0.3113,0.3115,0.2947,0.2849,0.2843,0.283,0.2817,0.2949,0.2948,0.2946,0.2945,0,0.1071,0.1158,0.1216,0.1275,0.1383,0.1462,0.1659,0.1719,0.2051,0.2262,0.2454,0.2587,0.2767,0.2886,0.298,0.297,0.3104,0.3064,0.3072,0.2914,0.282,0.2815,0.2808,0.2929,0.2931,0.2933,0.2934,0,0.0922,0.0927,0.1026,0.1081,0.116,0.1227,0.1359,0.1551,0.1697,0.2103,0.2148,0.2469,0.2723,0.2782,0.2829,0.2855,0.2785,0.2664,0.2691,0.2711,0.2539,0.2376,0.237,0,0,0,0,0,0.0772,0.0796,0.0817,0.0897,0.0966,0.1043,0.1242,0.1406,0.1734,0.1792,0.1981,0.2146,0.2333,0.2487,0.246,0.2678,0.277,0.263,0.2636,0.2838,0.2857,0.2675,0,0,0,0,0,0,0.0691,0.0715,0.0773,0.0739,0.0759,0.0859,0.1003,0.1229,0.1296,0.162,0.1736,0.1962,0.2168,0.2311,0.2398,0.2439,0.2387,0.2807,0.28,0.2827,0.2844,0.286,0.2679,0,0,0,0,0]},{"header":{"parameterUnit":"m.s-1","parameterCategory":2,"la1":30.2991,"la2":30.254,"lo1":-89.0895,"lo2":-89.0444,"dy":0.0017,"dx":0.0017,"nx":28,"ny":28,"refTime":"2025-07-20T21:00:00:Z","depth":"4","parameterNumber":3,"parameterNumberName":"V-component_of_CURRENTS"},"data":[0,0,0,0,0,0,0,0,0,0,0,0,0,0,0,0,0,0,0,0,0,0,0,0,0,0,0,0,0,0,0,0,0,0,0,0,0,0,0,0,0,0,0,0,0,0,0,0,0,0,0,0,0,0,0,0,0,0,0.0204,0.0204,0,0.0191,0.0191,0.0191,0.0162,0.0161,0.016,0.016,0.0105,0.0104,0.0103,0,0,0,0,0,0,0,0,0,0,0,0,0,0.0166,0.0167,0.0204,0.0204,0.0204,0.0192,0.0191,0.0191,0.0162,0.0161,0.016,0.016,0.0105,0.0104,0.0103,0,0,0,0,0,0,0,0,0,0,0,0,0,0.0171,0.0168,0.0204,0.0188,0.0186,0.0192,0.0191,0.0191,0.0162,0.0161,0.016,0.0159,0.0106,0.0104,0.0103,0.0112,0,0,0.0099,0.0098,0,0,0,0,0,0,0,0,0.0171,0.0172,0.019,0.0189,0.0187,0.0177,0.0158,0.0163,0.0162,0.0171,0.016,0.0159,0.0126,0.0123,0.0123,0.011,0.0107,0.0099,0.0098,0.0097,0.0097,0,0,0,0,0,0,0,0.017,0.0172,0.0199,0.019,0.0188,0.0168,0.0168,0.0158,0.0153,0.017,0.0168,0.0167,0.0125,0.0124,0.0121,0.0107,0.0099,0.0097,0.0097,0.0096,0.009,0.009,0,0,0,0,0,0,0.0176,0.0173,0.0199,0.0199,0.0177,0.017,0.017,0.0181,0.0154,0.0149,0.0168,0.0166,0.0127,0.0123,0.0119,0.0124,0.0097,0.0096,0.0095,0.0089,0.009,0.0091,0,0,0,0,0,0,0.0175,0.0179,0.02,0.0184,0.0186,0.0172,0.0185,0.0182,0.0182,0.0153,0.0147,0.0172,0.0126,0.0121,0.0103,0.0122,0.0095,0.0094,0.0088,0.0089,0.009,0.0137,0,0,0,0,0,0,0.0174,0.0179,0.019,0.0185,0.0187,0.0213,0.0185,0.0182,0.0183,0.018,0.0154,0.0148,0.0125,0.0105,0.0101,0.0119,0.0093,0.0087,0.0089,0.009,0.0135,0.0139,0.0144,0,0,0,0,0,0.0173,0.0204,0.0191,0.0194,0.0203,0.0214,0.0213,0.0199,0.0184,0.0194,0.0163,0.0149,0.011,0.0104,0.01,0.0118,0.0087,0.0088,0.009,0.0133,0.0139,0.0143,0,0,0,0,0,0,0.0198,0.0204,0.019,0.0221,0.0217,0.0209,0.0222,0.0206,0.0192,0.0184,0.0151,0.0143,0.0137,0.0121,0.0114,0.012,0.01,0.01,0.0134,0.0139,0.0143,0.0145,0.0092,0,0,0,0,0,0.0207,0.0229,0.0223,0.0246,0.0249,0.0234,0.0236,0.0223,0.0208,0.0202,0.0182,0.0159,0.0142,0.0133,0.0119,0.012,0.0067,0.0131,0.0136,0.0139,0.0138,0.0062,0.0058,0.0095,0.0095,0.0095,0,0,0.0221,0.0229,0.0239,0.0252,0.025,0.0263,0.0234,0.0244,0.0246,0.0198,0.02,0.0175,0.0145,0.0143,0.0141,0.013,0.0101,0.0141,0.0145,0.0141,0.0063,0.0058,0.0055,0.0096,0.0096,0.0096,0,0,0.0264,0.027,0.0298,0.03,0.0299,0.0291,0.0295,0.0288,0.0278,0.0273,0.0236,0.0214,0.0203,0.0176,0.0162,0.0183,0.0127,0.0191,0.0214,0.014,0.0136,0.0131,0.0055,0.0043,0.0193,0.0193,0.0193,0,0.0272,0.0311,0.0307,0.033,0.0334,0.0307,0.0327,0.0319,0.0302,0.0289,0.0282,0.0236,0.0217,0.0189,0.0202,0.0193,0.0138,0.0195,0.0144,0.0138,0.0133,0.0056,0.0042,0.0196,0.0195,0.0195,0.0195,0,0.033,0.0355,0.0376,0.0393,0.0397,0.0414,0.0397,0.0392,0.0375,0.0356,0.0329,0.0289,0.0258,0.0257,0.0239,0.0202,0.0169,0.0156,0.0127,0.0131,0.005,0.0035,0.0199,0.0198,0.0198,0.0197,0,0,0.0357,0.0405,0.041,0.0426,0.0429,0.044,0.044,0.043,0.0423,0.0396,0.038,0.0349,0.0316,0.0297,0.0263,0.0208,0.013,0.0175,0.017,0.0093,-0.0045,-0.0038,-0.0054,0.0101,0.0099,0.0097,-0.0089,0,0.0396,0.0458,0.0464,0.0507,0.0535,0.0505,0.0509,0.0489,0.0466,0.0446,0.0385,0.037,0.0334,0.0323,0.0256,0.0165,0.0094,0.0181,-0.0033,-0.004,-0.0039,-0.007,0.009,-0.01,-0.0104,-0.0106,-0.0108,0,0.0445,0.0481,0.0541,0.0562,0.057,0.0591,0.0578,0.0575,0.053,0.0511,0.0461,0.0413,0.0336,0.0313,0.0122,0.0176,0.0072,-0.0008,-0.0017,-0.0037,-0.006,-0.0106,-0.0136,-0.0134,-0.0132,-0.013,-0.0128,0,0.0481,0.0527,0.0581,0.0592,0.0617,0.0631,0.0633,0.0602,0.0611,0.0558,0.0556,0.0434,0.0395,0.0234,0.008,0.0091,-0.0137,-0.0148,-0.0252,-0.0253,-0.0226,-0.0219,-0.0294,-0.0294,-0.0293,-0.0293,-0.0292,0,0.0529,0.0568,0.061,0.0648,0.07,0.0684,0.0726,0.0704,0.0687,0.0706,0.0602,0.0576,0.0376,0.023,0.007,-0.0138,-0.0159,-0.0262,-0.0303,-0.02,-0.0189,-0.0237,-0.0228,-0.03,-0.0298,-0.0297,-0.0296,0,0.0581,0.0607,0.0672,0.0714,0.0737,0.0775,0.0825,0.0845,0.0811,0.0828,0.0821,0.0679,0.048,0.026,-0.0002,-0.0132,-0.0338,-0.0405,-0.0286,-0.0315,-0.041,-0.0396,-0.0561,-0.0562,-0.0563,-0.0564,-0.0565,0,0.0616,0.0661,0.0742,0.0786,0.0822,0.0882,0.093,0.093,0.0948,0.0891,0.0896,0.0723,0.0605,0.0224,-0.0012,-0.0355,-0.0384,-0.0502,-0.0453,-0.0415,-0.0439,-0.0424,-0.0409,-0.0567,-0.0567,-0.0567,-0.0568,0,0.0675,0.0709,0.0764,0.0863,0.0937,0.1014,0.1069,0.1098,0.1083,0.1066,0.096,0.0763,0.0535,0.0234,-0.0029,-0.0266,-0.0435,-0.0515,-0.0514,-0.0469,-0.0425,-0.0444,-0.0428,-0.0572,-0.0571,-0.0571,-0.057,0,0.0713,0.0755,0.0828,0.0907,0.1004,0.1085,0.1127,0.1132,0.1149,0.1076,0.1042,0.0793,0.0646,0.0278,0.0035,-0.0202,-0.0259,-0.0325,-0.0335,-0.0334,-0.0201,-0.0107,-0.0205,0,0,0,0,0,0.073,0.0769,0.0853,0.0941,0.1041,0.1103,0.1179,0.1201,0.1204,0.1149,0.1093,0.0882,0.0512,0.0338,0.0101,0.0004,-0.0306,-0.0282,-0.0388,-0.0594,-0.0589,-0.047,0,0,0,0,0,0,0.074,0.0814,0.0848,0.0947,0.1015,0.1136,0.1195,0.1212,0.1158,0.1124,0.0925,0.0829,0.046,0.0652,0.0099,0.0024,-0.0074,-0.0458,-0.0463,-0.0596,-0.0592,-0.0588,-0.0465,0,0,0,0,0]}]]